Dundee, United Kingdom

5:23 PM BST on May 22, 2017 (GMT +0100)
Dundee

Weather History for EGPN - March, 2014

Change the Weather History Date:

Friday, March 21, 2014

  Actual Average Record
Temperature  
Mean Temperature 44 °F -  
Max Temperature 48 °F 50 °F 59 °F (2009)
Min Temperature 41 °F 41 °F 28 °F (2007)
Degree Days  
Heating Degree Days 20    
Moisture  
Dew Point 38 °F    
Average Humidity 77    
Maximum Humidity 87    
Minimum Humidity 66    
Precipitation  
Precipitation 0.00 in - - ()
Sea Level Pressure  
Sea Level Pressure 29.28 in    
Wind  
Wind Speed 19 mph ()    
Max Wind Speed 30 mph    
Max Gust Speed 39 mph    
Visibility 6.2 miles    
Events Rain    
Averages and records for this station are not official NWS values.
T = Trace of Precipitation, MM = Missing Value Source: Averaged Metar Reports

Daily Weather History Graph

Daily Weather History Graph

Search for Another Location

Airport or City:

Trip Planner

Search our weather history database for the weather conditions in past years. The results will help you decide how hot, cold, wet, or windy it might be!

Date:

Astronomy

Mar. 21, 2014 Rise Set
Actual Time 6:11 AM GMT 6:27 PM GMT
Civil Twilight 5:34 AM GMT 7:05 PM GMT
Nautical Twilight 4:49 AM GMT 7:50 PM GMT
Astronomical Twilight 4:02 AM GMT 8:38 PM GMT
Moon No Moon Rise 8:02 AM GMT (3/21)
Length of Visible Light 13h 31m
Length of Day
12h 15m
Waning Gibbous, 77% of the Moon is Illuminated
Mar 21
Waning Gibbous
Mar 24
Last Quarter
Mar 30
New
Apr 7
First Quarter
Apr 15
Full

Hourly Weather History & Observations

Time (GMT) Temp. Windchill Dew Point Humidity Pressure Visibility Wind Dir Wind Speed Gust Speed Precip Events Conditions
7:20 AM 42.8 °F 32.9 °F 39.2 °F 87% 29.30 in 6.2 mi WSW 26.5 mph - N/A Rain Light Rain Showers
7:50 AM 42.8 °F 33.3 °F 39.2 °F 87% 29.30 in 6.2 mi WSW 24.2 mph - N/A Rain Light Rain Showers
8:20 AM 42.8 °F 34.0 °F 39.2 °F 87% 29.30 in 6.2 mi WSW 20.7 mph - N/A   Mostly Cloudy
8:50 AM 42.8 °F 34.0 °F 39.2 °F 87% 29.33 in 6.2 mi WSW 20.7 mph - N/A   Mostly Cloudy
9:20 AM 41.0 °F 32.8 °F 35.6 °F 81% 29.33 in 6.2 mi West 16.1 mph - N/A   Mostly Cloudy
9:50 AM 42.8 °F 36.2 °F 39.2 °F 87% 29.33 in 6.2 mi West 12.7 mph - N/A   Mostly Cloudy
10:20 AM 46.4 °F 37.9 °F 39.2 °F 76% 29.33 in 6.2 mi SW 25.3 mph - N/A   Mostly Cloudy
10:50 AM 46.4 °F 37.4 °F 39.2 °F 76% 29.33 in 6.2 mi SW 28.8 mph - N/A   Mostly Cloudy
11:20 AM 46.4 °F 37.5 °F 39.2 °F 76% 29.33 in 6.2 mi SW 27.6 mph - N/A   Mostly Cloudy
11:50 AM 46.4 °F 37.2 °F 37.4 °F 71% 29.33 in 6.2 mi SW 29.9 mph - N/A   Mostly Cloudy
12:20 PM 46.4 °F 37.5 °F 37.4 °F 71% 29.33 in 6.2 mi SW 27.6 mph 39.1 mph N/A   Mostly Cloudy
12:50 PM 46.4 °F 38.7 °F 37.4 °F 71% 29.33 in 6.2 mi WSW 20.7 mph 32.2 mph N/A   Mostly Cloudy
1:20 PM 46.4 °F 37.7 °F 37.4 °F 71% 29.33 in 6.2 mi WSW 26.5 mph 38.0 mph N/A   Scattered Clouds
1:50 PM 46.4 °F 38.1 °F 35.6 °F 66% 29.33 in 6.2 mi SW 24.2 mph - N/A   Scattered Clouds
2:20 PM 48.2 °F - 39.2 °F 71% 29.33 in 6.2 mi WSW 16.1 mph - N/A   Scattered Clouds
2:50 PM 46.4 °F 38.7 °F 39.2 °F 76% 29.33 in 6.2 mi WSW 20.7 mph - N/A   Scattered Clouds
3:20 PM 46.4 °F 38.3 °F 37.4 °F 71% 29.33 in 6.2 mi WSW 23.0 mph - N/A   Scattered Clouds
3:50 PM 46.4 °F 40.1 °F 37.4 °F 71% 29.33 in 6.2 mi WSW 15.0 mph - N/A   Scattered Clouds
4:20 PM 46.4 °F 39.2 °F 35.6 °F 66% 29.30 in 6.2 mi SW 18.4 mph - N/A   Partly Cloudy
4:50 PM 46.4 °F 39.8 °F 35.6 °F 66% 29.30 in 6.2 mi SSW 16.1 mph - N/A   Partly Cloudy
5:20 PM 46.4 °F 39.0 °F 37.4 °F 71% 29.27 in 6.2 mi SSW 19.6 mph - N/A   Partly Cloudy
6:20 PM 46.4 °F 41.1 °F 35.6 °F 66% 29.24 in 6.2 mi South 11.5 mph - N/A   Partly Cloudy
6:50 PM 44.6 °F 37.4 °F 39.2 °F 81% 29.21 in 6.2 mi SSW 16.1 mph - N/A   Partly Cloudy
7:20 PM 44.6 °F 38.8 °F 39.2 °F 81% 29.21 in 6.2 mi SSW 11.5 mph - N/A   Scattered Clouds
7:50 PM 44.6 °F 37.2 °F 39.2 °F 81% 29.18 in 6.2 mi SSW 17.3 mph 29.9 mph N/A   Scattered Clouds
8:20 PM 42.8 °F 32.9 °F 39.2 °F 87% 29.18 in 6.2 mi SSW 26.5 mph - N/A   Scattered Clouds
8:50 PM 42.8 °F 34.0 °F 39.2 °F 87% 29.18 in 6.2 mi SSW 20.7 mph - N/A   Scattered Clouds
9:20 PM 42.8 °F 33.8 °F 39.2 °F 87% 29.18 in 6.2 mi SSW 21.9 mph - N/A   Scattered Clouds
9:50 PM 42.8 °F 34.3 °F 39.2 °F 87% 29.15 in 6.2 mi SSW 19.6 mph - N/A   Scattered Clouds